Volver al catálogo

COSMOS 2251 DEB

ActivoLEO
NORAD 33779·DEBRIS·🇷🇺 Russia

Lanzado Jun 16, 1993 desde Plesetsk Cosmodrome

Loading…

Próximos Pases (próximas 24 horas)

TLE

ActualizadoSource: Space-Track

Época: Sep 14, 2026, 01:06 UTC

1 33779U 93036U   26257.04586618  .00005123  00000-0  74891-3 0  9993
2 33779  74.0456 354.0811 0016071 323.6572 211.3047 14.75876946925834

Sigue COSMOS 2251 DEB en tiempo real con AllMySat

Download on the App Store